This is the latest recevied weather packets stored in our database for station/object K5MGY. If no packets are shown the sender has not sent any weather packets the latest 10 day(s).
| Time | Temp. | Humidity | Pressure | Rain* | Wind** | Luminosity | Snow |
|---|---|---|---|---|---|---|---|
| 1777764749 | 24.44° C | 34% | 1042.5 hPa | 0 mm | - | 29 W/m² | - |
| 1777764445 | 24.44° C | 33% | 1042.7 hPa | 0 mm | - | 30 W/m² | - |
| 1777764142 | 24.44° C | 33% | 1042.7 hPa | 0 mm | - | 30 W/m² | - |
| 1777763839 | 24.44° C | 33% | 1042.9 hPa | 0 mm | - | 32 W/m² | - |
| 1777763537 | 25° C | 33% | 1042.9 hPa | 0 mm | - | 32 W/m² | - |
| 1777763235 | 25° C | 35% | 1042.7 hPa | 0 mm | - | 32 W/m² | - |
| 1777762933 | 25° C | 34% | 1042.9 hPa | 0 mm | - | 33 W/m² | - |
| 1777762628 | 25° C | 33% | 1042.6 hPa | 0 mm | - | 34 W/m² | - |
| 1777762326 | 25° C | 33% | 1042.7 hPa | 0 mm | - | 36 W/m² | - |
| 1777762022 | 25.56° C | 34% | 1042.8 hPa | 0 mm | - | 36 W/m² | - |
| 1777761719 | 25° C | 35% | 1042.7 hPa | 0 mm | - | 39 W/m² | - |
| 1777761417 | 25° C | 33% | 1042.9 hPa | 0 mm | - | 42 W/m² | - |
| 1777761115 | 25.56° C | 34% | 1043 hPa | 0 mm | - | 40 W/m² | - |
| 1777760812 | 25° C | 39% | 1042.9 hPa | 0 mm | - | 41 W/m² | - |
| 1777760508 | 25.56° C | 34% | 1042.9 hPa | 0 mm | - | 50 W/m² | - |
| 1777760204 | 25.56° C | 35% | 1042.9 hPa | 0 mm | - | 53 W/m² | - |
| 1777759902 | 25.56° C | 35% | 1043 hPa | 0 mm | - | 51 W/m² | - |
| 1777759598 | 25.56° C | 33% | 1043.1 hPa | 0 mm | - | 53 W/m² | - |
| 1777759294 | 25.56° C | 30% | 1043.3 hPa | 0 mm | - | 66 W/m² | - |
| 1777758991 | 25.56° C | 34% | 1043.1 hPa | 0 mm | - | 92 W/m² | - |
| 1777758688 | 25.56° C | 35% | 1042.9 hPa | 0 mm | - | 91 W/m² | - |
| 1777758385 | 25.56° C | 34% | 1043.3 hPa | 0 mm | - | 85 W/m² | - |
| 1777758082 | 25° C | 36% | 1043.2 hPa | 0 mm | - | 86 W/m² | - |
| 1777757780 | 25.56° C | 33% | 1043.3 hPa | 0 mm | - | 78 W/m² | - |
| 1777757477 | 25.56° C | 35% | 1043.5 hPa | 0 mm | - | 68 W/m² | - |
* Rain latest hour (hover to see other rain measurements)
** Current wind speed in m/s (hover to see current wind gust speed)